ARKSAT 1 (56311 NORAD) Tracking and Keplerian Element Data

This shows tracking and keplerian element data for the satellite.

Feedback or suggestion? Click here.




ElementValue
Catalog56311
NameARKSAT 1
Epoch Orbit1939
Epoch Day238.74477546
Epoch Year2023
RAAN331.0465
Inclination51.6362
Eccentricity0.0009354
Argument of Perigee345.3464
Mean Anonmoly14.726
Mean Motion15.68467346
Decay Rate0.00114295
L11 56311U 98067VC 23238.74477546 .00114295 00000+0 98082-3 0 9999
L22 56311 51.6362 331.0465 0009354 345.3464 14.7260 15.68467346 19395



Live tracking and technical data element details for ARKSAT 1 (NORAD 56311). ARKSAT 1 can be tracked NOW for your location showing map with azimuth and elevation plus other details from your city location.







IsCatalogInMostPopularTable: catalog: 56311, numindb: 55
Update: records affected: 1



GetName: 56311 ARKSAT 1

Hit Count: updated at: Fri, 24 Jan 2025 23:02:58 GMT